Theta_e
294 294 291 294 293 289 290 288 287 287 289 289 290 290 293 295 292 293 295 296 297 297 299 300 301 301 300 298 299 300 300 299 300 300 299 295 292 292 292 292 291 292 292 292
293 290 294 293 290 289 288 287 286 288 289 289 288 289 294 295 293 294 296 296 296 297 297 298 299 300 299 298 298 298 298 298 299 299 297 296 293 291 291 291 291 291 291 291
292 290 290 290 288 288 288 289 287 287 288 288 287 289 291 294 292 293 294 296 297 297 296 297 298 299 299 297 297 297 296 296 296 295 294 293 292 292 291 289 289 289 290 290
289 291 289 288 288 290 286 289 288 288 288 286 288 287 289 292 295 294 295 295 296 296 296 298 298 299 299 298 297 296 295 295 294 295 294 292 291 289 289 289 289 289 289 289
288 288 288 287 288 289 287 290 289 288 288 287 285 286 290 292 293 294 295 296 295 295 296 297 298 299 299 297 296 295 295 294 293 292 292 291 289 289 289 288 288 288 288 289
289 292 290 289 290 290 291 290 289 289 288 283 285 286 293 292 290 294 296 296 294 292 295 297 299 299 297 296 295 295 294 292 292 291 291 290 289 288 287 287 288 287 288 288
287 287 290 291 289 291 290 288 285 285 283 283 283 285 293 291 292 291 292 293 293 293 294 295 296 295 295 294 294 294 293 291 291 290 290 289 289 288 287 287 287 287 287 287
284 281 287 289 288 288 288 288 287 283 282 283 282 283 291 291 290 291 291 292 292 293 294 295 296 296 295 294 293 293 292 290 290 290 289 289 289 288 287 287 287 286 286 286
283 283 288 289 289 289 287 285 290 283 278 284 286 289 293 290 290 290 291 292 293 293 294 294 296 296 295 294 293 293 292 290 290 289 289 288 288 287 287 287 287 286 287 286
287 282 286 288 289 290 288 289 284 286 280 280 284 284 290 288 289 290 291 293 294 293 293 294 295 296 295 295 294 293 292 290 290 289 289 288 287 287 287 287 286 286 286 285
290 290 283 287 285 285 285 285 285 287 286 283 282 288 291 290 290 291 292 293 294 295 294 295 295 295 295 295 294 292 291 290 289 289 288 287 287 287 287 286 285 285 285 285
291 288 283 283 286 288 286 286 288 286 280 282 283 289 291 290 291 292 294 294 295 294 295 295 295 295 294 294 293 292 291 290 289 289 288 287 286 286 286 285 285 285 284 284
291 288 281 281 284 285 284 286 286 286 286 281 284 288 290 290 291 293 293 295 295 295 294 294 294 293 294 294 293 292 291 290 289 288 287 286 286 285 285 285 285 285 284 283
293 287 285 285 285 286 283 284 286 287 283 283 284 288 290 290 292 294 295 293 293 293 293 293 293 293 294 294 293 292 291 290 288 287 286 285 285 285 285 284 284 284 284 283
290 285 285 285 285 286 286 285 285 284 286 285 287 286 291 294 293 294 294 292 291 291 292 292 293 293 294 293 293 293 291 290 288 287 286 285 285 285 285 284 284 283 283 283
289 284 284 280 283 285 283 286 286 286 286 286 286 286 292 294 294 295 293 291 290 291 292 292 293 293 293 293 293 292 291 289 288 286 285 285 284 284 284 283 283 283 283 283
286 284 283 281 278 281 280 283 285 286 287 288 284 290 293 292 292 292 292 291 290 290 291 292 293 293 293 293 293 292 292 290 287 286 285 284 284 283 283 283 283 282 282 282
284 283 283 279 277 276 284 286 288 288 288 289 289 291 292 292 293 291 291 290 290 290 291 292 294 294 295 295 294 294 292 289 287 286 285 283 283 282 282 282 282 282 282 282
290 286 279 280 279 282 285 284 285 285 286 290 289 291 291 292 291 290 291 290 290 291 291 292 295 295 296 295 294 293 290 288 287 286 285 283 283 282 281 281 281 281 281 281
287 286 285 276 277 275 281 285 287 289 283 286 288 290 290 289 286 288 290 290 290 291 292 293 294 294 294 295 294 291 288 287 286 286 285 284 283 283 282 282 282 282 282 281
282 283 280 278 278 280 285 285 287 281 282 287 289 288 288 287 289 289 289 289 290 290 291 293 294 293 294 294 292 289 288 287 288 287 285 283 283 283 283 282 282 281 281 281
281 280 280 279 277 276 286 285 284 286 286 287 288 288 287 288 287 287 287 287 287 288 289 291 292 291 291 292 290 288 287 289 288 286 283 282 282 282 282 281 281 281 281 280
278 283 281 283 282 283 285 285 287 289 288 287 287 288 287 286 285 285 285 286 286 287 288 290 290 290 290 289 289 288 288 288 286 284 282 282 282 282 282 281 280 279 280 280
280 282 281 282 283 282 283 285 287 287 286 287 288 287 287 285 286 285 286 286 286 286 287 288 288 288 288 288 286 288 288 287 284 283 283 282 281 281 281 281 281 280 279 279
281 282 280 279 281 282 283 284 285 286 286 286 287 287 285 286 286 285 286 285 286 286 286 287 286 286 286 287 286 286 286 285 284 284 284 283 281 281 280 281 281 280 281 282
280 280 280 280 283 284 283 284 284 284 284 286 285 284 286 286 286 286 285 286 285 285 285 284 285 285 286 286 286 285 285 285 284 284 283 283 282 280 280 280 280 283 283 283
Wind_Speed
2 7 12 15 6 2 4 3 4 3 2 4 7 14 16 11 13 16 16 13 12 15 12 12 11 9 7 6 6 6 7 5 3 1 1 3 5 5 7 7 11 11 11 12
5 11 6 6 6 4 4 3 3 2 1 4 1 14 17 15 12 10 11 13 15 14 14 15 13 12 10 8 6 6 6 5 3 2 3 3 4 6 6 6 9 11 11 12
8 2 7 6 7 7 4 8 5 1 4 1 6 6 5 1 3 2 6 9 11 17 19 18 17 15 12 10 8 7 6 6 5 6 5 4 5 4 4 7 7 10 11 11
2 4 7 6 5 8 7 4 5 8 5 3 4 4 6 2 5 4 5 3 6 10 13 16 18 16 13 10 8 7 7 7 5 4 3 3 4 5 3 4 5 6 9 10
5 6 8 5 3 6 3 5 6 3 3 2 3 4 7 2 3 4 5 8 6 5 10 16 17 15 12 10 9 7 7 6 6 5 6 6 8 7 4 4 4 5 7 9
4 2 3 3 3 2 14 8 6 3 2 3 3 4 4 2 3 9 8 9 6 3 8 10 13 12 11 9 8 7 8 7 6 6 7 7 9 8 5 5 3 4 5 6
2 1 1 0 8 6 3 7 3 3 3 2 2 4 4 3 6 6 10 10 7 1 7 11 14 14 13 12 11 9 9 8 7 7 7 8 7 7 7 5 3 4 4 5
8 6 6 2 2 5 9 3 4 6 5 4 2 6 2 2 1 2 3 4 3 1 5 9 13 14 14 14 13 11 10 9 8 8 8 7 7 4 5 4 4 4 4 4
6 3 1 2 1 3 7 6 3 7 2 1 4 5 3 4 4 1 3 3 3 2 5 9 12 14 14 13 13 12 11 10 10 9 8 8 7 7 6 6 5 4 4 4
6 5 2 1 2 2 3 4 5 1 6 5 4 5 4 8 4 5 2 4 4 4 5 7 10 13 12 12 11 10 9 10 10 9 8 7 7 8 7 6 7 7 5 5
6 3 2 1 6 8 5 4 1 1 1 3 4 3 2 8 9 7 2 4 5 6 6 8 10 12 13 12 12 12 11 11 11 10 9 8 8 8 7 6 6 7 6 5
4 6 5 1 2 3 3 3 6 4 6 0 1 2 3 5 6 3 6 8 7 6 5 7 10 12 14 14 14 14 12 12 11 10 9 9 8 9 8 7 7 7 7 5
7 4 6 3 2 0 5 5 2 5 3 7 6 2 2 4 5 1 5 7 8 7 4 7 9 12 14 14 14 14 13 12 11 11 10 10 10 9 9 9 7 7 7 6
4 2 1 4 3 6 7 8 10 5 5 8 6 1 7 6 4 3 5 8 9 7 5 6 9 12 13 14 14 14 13 12 12 12 11 11 10 9 8 8 8 7 7 6
2 4 3 5 6 2 3 9 13 14 6 9 7 10 11 5 3 3 4 6 9 9 6 6 9 10 12 14 15 14 14 14 13 12 11 11 10 9 8 8 8 7 6 6
2 5 3 2 3 1 3 6 10 12 11 11 9 9 11 6 3 2 1 4 7 9 10 6 8 11 14 15 16 15 15 15 14 14 13 10 10 10 10 9 8 8 7 7
3 6 4 4 3 3 7 11 15 10 10 13 13 12 4 6 2 4 5 6 7 8 10 10 7 11 13 15 15 17 16 14 15 14 12 13 13 12 10 10 9 9 8 8
6 4 1 3 1 8 2 3 2 11 8 16 4 5 6 4 5 7 7 6 7 8 9 10 8 7 10 12 15 14 15 16 16 15 15 14 13 12 11 11 11 10 8 8
3 5 3 4 7 8 13 6 8 9 7 13 15 9 6 6 10 8 8 8 7 8 8 8 8 6 7 11 12 14 14 15 15 16 16 15 14 12 11 13 12 10 9 8
4 4 4 4 6 9 0 1 3 2 7 3 9 9 11 13 7 4 6 7 8 8 8 8 8 2 5 9 11 13 14 15 16 16 16 15 15 15 14 12 12 9 9 8
4 4 10 8 6 7 6 2 4 9 2 7 9 8 10 6 5 5 3 4 5 7 10 10 7 4 2 7 11 13 13 16 14 11 11 13 13 14 13 12 10 10 9 8
8 8 5 3 7 13 5 6 7 4 7 11 10 10 12 9 5 1 3 5 7 8 10 10 8 5 2 7 9 10 13 10 10 11 12 12 12 9 10 12 10 10 9 9
5 4 4 7 4 2 2 1 4 6 14 9 11 7 8 5 2 3 4 5 6 6 6 5 7 4 0 5 8 9 9 9 10 11 12 12 12 11 11 13 12 10 10 9
3 1 1 2 3 5 6 6 8 11 12 8 8 7 4 2 2 3 4 5 5 4 5 5 6 5 4 3 6 8 6 9 11 12 12 11 13 13 11 9 10 10 11 10
1 3 3 2 3 6 3 3 6 7 6 5 3 3 2 1 3 4 5 7 8 7 3 3 5 5 5 3 6 6 7 10 10 10 11 12 10 13 12 11 11 12 12 13
2 3 2 2 9 0 10 4 2 4 5 5 4 3 4 5 7 5 6 5 4 8 7 8 6 4 5 5 5 6 8 11 11 10 10 11 10 10 10 10 9 19 16 20
Wind_Direction
89 191 200 198 197 54 128 132 145 117 136 217 244 276 278 260 239 243 235 231 221 218 200 183 180 175 175 176 176 174 164 151 170 166 111 85 54 51 50 39 28 27 26 21
157 221 183 126 141 139 150 157 179 95 113 241 295 281 278 259 246 267 265 240 230 212 196 187 181 181 189 179 176 169 158 155 156 131 86 72 83 64 49 41 34 30 30 27
196 102 140 145 161 177 205 226 184 336 151 182 291 258 285 288 119 221 245 255 236 216 203 189 185 187 183 183 178 169 154 143 130 120 116 108 108 96 58 35 29 28 30 28
206 131 165 140 177 187 215 191 146 140 206 267 334 302 279 321 338 78 75 1 266 225 212 196 187 185 183 179 166 158 145 133 124 158 154 132 91 92 72 61 47 48 40 41
160 168 161 169 160 182 113 132 123 127 132 256 161 231 269 55 115 8 347 7 358 236 209 197 191 182 176 166 168 158 144 124 114 118 119 119 110 110 115 90 84 74 63 50
81 8 358 72 96 81 140 107 79 79 127 232 119 256 270 341 307 316 339 350 354 170 189 191 184 168 166 162 165 162 150 127 126 124 120 120 130 133 131 114 107 74 68 61
103 66 44 256 111 115 175 163 149 193 190 252 43 224 312 301 324 319 329 337 353 90 169 174 175 176 169 170 171 166 159 144 139 132 127 128 128 123 119 118 106 93 75 61
163 196 183 16 324 190 182 235 198 203 189 142 52 230 171 263 293 306 295 316 328 196 191 188 186 181 174 176 177 173 165 152 150 144 136 130 128 117 107 106 104 90 83 69
155 146 36 49 347 286 159 205 67 104 20 209 185 256 238 153 139 132 33 325 325 251 211 199 189 187 181 182 181 178 168 160 157 152 147 146 145 139 136 127 118 106 100 87
172 110 349 77 204 55 303 124 138 203 166 209 193 270 226 199 117 107 46 359 329 264 222 205 197 192 188 184 179 179 176 168 164 161 158 155 150 141 139 141 133 125 113 102
145 118 92 231 212 178 155 178 95 96 328 175 170 220 191 158 150 135 355 323 306 285 236 209 199 195 189 182 181 180 178 172 172 173 167 161 155 146 145 139 134 134 127 116
182 109 138 162 4 342 329 186 184 190 180 130 326 171 166 135 160 166 350 326 316 285 251 215 203 194 190 188 185 185 183 182 181 176 168 167 159 156 153 152 144 144 128 118
174 161 123 129 182 335 227 199 154 102 121 186 168 177 150 165 171 194 311 340 349 330 251 209 201 200 199 195 192 190 187 186 178 174 173 172 170 173 161 155 163 147 140 135
108 96 272 190 104 126 183 183 187 186 174 165 221 230 174 188 196 0 17 13 358 344 303 222 207 206 203 201 198 195 192 186 182 179 179 182 181 178 166 158 160 152 142 148
100 125 106 77 83 56 133 169 184 202 191 200 194 224 269 315 17 38 348 5 357 359 348 246 220 211 205 203 200 196 192 188 183 183 189 188 176 171 165 165 159 154 148 143
334 118 116 58 359 232 244 192 183 208 226 256 246 254 247 270 143 339 90 359 344 342 344 318 226 212 209 207 203 196 194 188 183 187 188 180 177 171 171 169 165 163 160 149
97 138 153 164 321 263 260 202 194 196 196 203 216 221 171 159 80 49 10 353 336 325 327 324 268 220 209 206 202 201 195 184 187 190 184 181 177 175 175 173 172 170 178 156
132 120 29 120 199 245 48 57 259 231 215 217 214 162 147 120 94 72 32 5 354 335 323 321 318 256 221 206 200 197 189 187 187 187 184 182 182 180 173 178 180 174 179 173
180 123 117 212 204 314 282 201 179 180 233 217 229 212 203 147 133 81 32 19 355 339 327 318 314 281 208 198 195 192 188 186 186 187 185 185 177 178 178 187 182 177 178 173
98 79 188 150 219 229 316 348 179 181 244 188 201 197 166 157 163 113 6 0 0 6 1 346 348 1 186 186 183 186 191 193 198 192 188 177 175 177 186 186 181 179 187 176
171 153 196 187 224 275 245 119 153 181 192 98 114 117 131 124 82 102 352 356 347 349 357 358 19 24 241 178 177 187 192 207 203 190 181 177 179 177 179 176 179 171 179 172
177 174 195 175 211 249 147 104 203 108 83 117 98 95 95 102 97 36 317 337 352 360 9 8 12 17 119 168 179 192 208 200 191 182 175 171 168 180 171 172 173 174 180 179
209 210 181 201 215 336 311 15 103 129 126 119 107 109 109 117 86 345 324 342 353 359 348 358 1 349 59 184 193 209 215 183 170 172 178 175 169 181 179 175 178 175 184 189
233 168 213 156 60 84 82 91 100 105 101 99 102 103 83 53 347 313 317 323 335 356 355 337 345 347 330 217 205 226 182 179 174 181 183 181 179 180 183 191 183 186 185 192
23 145 157 99 84 91 31 87 99 102 105 100 108 124 70 314 301 295 306 320 329 330 322 322 322 323 309 278 231 209 184 173 187 192 185 186 189 188 186 194 199 196 199 198
202 188 215 300 173 93 172 169 163 159 194 204 182 193 219 224 262 259 279 288 299 309 322 323 316 301 303 307 259 221 194 186 189 193 193 191 188 189 188 191 204 215 210 207